Regional Weather Roundup
Issued by NWS

Home | Current Version | Previous Version | Graphics & Text | Print | Product List | Glossary Off
Versions: 1 2 3 4 5 6 7 8 9 10 11 12 13 14 15 16 17 18 19 20 21 22 23 24 25 26 27 28 29 30 31 32 33 34 35 36 37 38 39 40 41 42 43 44 45 46 47 48 49 50

000
ASUS43 KDMX 141306
RWRIA

WEATHER ROUNDUP FOR IOWA
NATIONAL WEATHER SERVICE DES MOINES IA
700 AM CST THU DEC 14 2017

NOTE: "FAIR" INDICATES FEW OR NO CLOUDS BELOW 12,000 FEET WITH NO
SIGNIFICANT WEATHER AND/OR OBSTRUCTIONS TO VISIBILITY.

* - THESE STATIONS ARE NOT NWS STATIONS...THUS NOT UNDER NWS
QUALITY CONTROL.  THEY ALSO DO NOT REPORT WEATHER SUCH
AS PRECIPITATION OR FOG.

IAZ001>003-012>014-020>022-031>034-043>046-141400-
   NORTHWEST IOWA

CITY           SKY/WX    TMP DP  RH WIND       PRES   REMARKS
CARROLL *      CLOUDY    27  19  74 N8        30.04R WCI  18
CHEROKEE *     CLOUDY    25  21  86 CALM      30.04R
DENISON *      CLOUDY    27  21  80 N6        30.05R WCI  20
LE MARS *      CLOUDY    28  25  86 SE3       30.03R
ORANGE CITY *  CLOUDY    27  25  93 CALM      30.02R
SHELDON *      CLOUDY    23  21  93 CALM      30.00R
SIOUX CITY     CLOUDY    29  24  82 SE6       30.03R WCI  23
SPENCER        CLOUDY    23  18  81 N6        30.03R WCI  16
STORM LAKE *   CLOUDY    23  19  86 N3        30.02R
$$

IAZ055>058-069>071-079>083-090>094-141400-
   SOUTHWEST IOWA

CITY           SKY/WX    TMP DP  RH WIND       PRES   REMARKS
ATLANTIC *     CLOUDY    28  23  80 N3        30.05R
AUDUBON *      CLOUDY    27  21  80 CALM      30.04R
CLARINDA *     CLOUDY    32  25  74 N5        30.07  WCI  27
COUNCIL BLFS * CLOUDY    32  32 100 CALM      30.04R
CRESTON *      CLOUDY    27  23  86 N8        30.04R WCI  18
HARLAN  *      CLOUDY    28  25  86 CALM      30.07R
LAMONI         CLOUDY    27  19  72 N9        30.02R WCI  18
RED OAK *      CLOUDY    30  25  80 CALM      30.06R
SHENANDOAH *   CLOUDY    32  27  80 NE3       30.06R
$$

IAZ047>049-059>061-072>074-084-141400-
   CENTRAL IOWA

CITY           SKY/WX    TMP DP  RH WIND       PRES   REMARKS
AMES           CLOUDY    23  18  81 N10       30.05R WCI  12
ANKENY *       CLOUDY    25  18  74 N8        30.07R WCI  16
BOONE *        CLOUDY    23  18  80 N7        30.03R WCI  15
CHARITON *     CLOUDY    27  18  69 N7        30.03R WCI  19
DES MOINES     CLOUDY    26  17  68 N8        30.06R WCI  18
GRINNELL*      CLOUDY    24  17  75 NW8       30.05R WCI  15
KNOXVILLE *    CLOUDY    27  16  63 N8        30.04R WCI  18
MARSHALLTOWN   CLOUDY    23  17  78 NE5       30.04R WCI  17
NEWTON *       CLOUDY    25  16  68 N7        30.05R WCI  17
PELLA *        CLOUDY    25  19  76 NW6       30.06R WCI  18
PERRY *        CLOUDY    24  17  73 N3        30.05R
$$

IAZ004>006-015-016-023>025-035-036-141400-
   NORTH CENTRAL IOWA

CITY           SKY/WX    TMP DP  RH WIND       PRES   REMARKS
ALGONA *       CLOUDY    19  19 100 NE5       30.03R WCI  13
CLARION *      CLOUDY    16  16 100 CALM      30.04S
ESTHERVILLE    CLOUDY    21  15  78 CALM      30.01R
FORT DODGE *   CLOUDY    22  17  81 E3        30.04R
MASON CITY     CLOUDY    16  14  92 CALM      30.03S
FOREST CITY *    N/A     14  14 100 CALM      30.03S
WEBSTER CITY * CLOUDY    21  16  79 NW5       30.03R WCI  15
IOWA FALLS *   CLOUDY    23  17  78 N3        30.05R
$$

IAZ007>011-017>019-026>030-037>042-050>054-066-141400-
   NORTHEAST IOWA

CITY           SKY/WX    TMP DP  RH WIND       PRES   REMARKS
CEDAR RAPIDS   CLOUDY    13   9  84 NW7       30.04R WCI   3
CHARLES CITY * CLOUDY    12  12 100 CALM      30.04R
CLINTON *      CLOUDY    20  12  71 NE12      30.05R WCI   8
DECORAH *      CLOUDY     9   7  92 CALM      30.02S
DUBUQUE        CLEAR     12   9  87 NW3       30.04R
MONTICELLO *   CLOUDY    19  12  73 N3        30.05R
OELWEIN *      CLOUDY    12  12 100 N5        30.05R WCI   4
WATERLOO       CLOUDY    17  12  80 NW5       30.06R WCI  10
$$

IAZ064-065-067-068-078-141400-
   EAST CENTRAL IOWA

CITY           SKY/WX    TMP DP  RH WIND       PRES   REMARKS
DAVENPORT      CLOUDY    22  15  75 N5        30.07R WCI  16
IOWA CITY      CLOUDY    17  13  84 N3        30.08R
MT. PLEASANT * CLOUDY    18  12  79 NW3       30.06R
MUSCATINE *    MOCLDY    16  12  86 CALM      30.08R
QUAD CITIES    CLOUDY    24  15  68 N5        30.05R WCI  18
$$

IAZ062-063-075>077-085>089-095>099-141400-
   SOUTHEAST IOWA

CITY           SKY/WX    TMP DP  RH WIND       PRES   REMARKS
BURLINGTON     CLOUDY    20  15  81 N7        30.04R WCI  11
FAIRFIELD *    CLOUDY    21  14  73 N5        30.05R WCI  15
FORT MADISON * CLOUDY    18  14  86 N3        30.05R
KEOKUK *       CLOUDY    25  18  74 N5        30.04R WCI  19
OSKALOOSA *    CLOUDY    23  16  74 E5        30.05S WCI  17
OTTUMWA        CLOUDY    24  14  65 NE5       30.04R WCI  18
WASHINGTON *   CLOUDY    16  14  93 N5        30.07R WCI   9
$$

ABBREVIATIONS USED IN REMARKS
   TC - TEMPERATURES IN CELSIUS
  WCI - WIND CHILL INDEX
   HX - HEAT INDEX
  VSB - VISIBILITY
$$




USA.gov is the U.S. government's official web portal to all federal, state and local government web resources and services.